GW6791 Weather Reports


time (UTC)temp
C
wind
direction
speed
KPH
gust
KPH
rain 1hr
cm
rain 24hr
cm
rain mn
cm
humidity
%
barometer
mb
20260903043627 25 99 0.0 0.0 0.00 0.00 0.00 83 1053.2
20260903043126 25 102 0.0 0.0 0.00 0.00 0.00 81 1053.2
20260903042626 25 102 0.0 1.6 0.00 0.00 0.00 81 1053.2
20260903042121 25 102 0.0 1.6 0.00 0.00 0.00 83 1053.2
20260903041618 25 101 1.6 1.6 0.00 0.00 0.00 85 1053.3
20260903041114 25 93 3.2 4.8 0.00 0.00 0.00 84 1053.2
20260903040612 25 88 1.6 3.2 0.00 0.00 0.00 83 1053.1
20260903040109 25 92 0.0 0.0 0.00 0.00 0.00 82 1053.3
20260903035604 25 93 0.0 1.6 0.00 0.00 0.00 82 1053.3
20260903035059 25 92 1.6 1.6 0.00 0.00 0.00 83 1053.3
20260903034554 25 92 0.0 1.6 0.00 0.00 0.00 84 1053.1
20260903034049 25 91 1.6 3.2 0.00 0.00 0.00 84 1053.3
20260903033544 25 85 1.6 3.2 0.00 0.00 0.00 83 1053.3
20260903033040 25 86 1.6 3.2 0.00 0.00 0.00 83 1053.3
20260903032535 25 94 1.6 3.2 0.00 0.00 0.00 85 1053.4
20260903032030 25 96 1.6 1.6 0.00 0.00 0.00 86 1053.2
20260903031530 25 94 1.6 3.2 0.00 0.00 0.00 87 1053.3
20260903031025 25 87 3.2 3.2 0.00 0.00 0.00 87 1053.3
20260903030521 25 82 1.6 1.6 0.00 0.00 0.00 85 1053.4
20260903030017 26 114 0.0 0.0 0.00 0.00 0.00 81 1053.4
20260903025512 26 114 0.0 0.0 0.00 0.00 0.00 81 1053.5
20260903025008 26 112 0.0 1.6 0.00 0.00 0.00 81 1053.4
20260903024507 25 107 1.6 1.6 0.00 0.00 0.00 83 1053.2
20260903024001 25 95 1.6 1.6 0.00 0.00 0.00 84 1053.6
20260903023457 25 87 1.6 3.2 0.00 0.00 0.00 85 1053.4
20260903022952 25 80 3.2 3.2 0.00 0.00 0.00 83 1053.5
20260903022451 26 79 1.6 1.6 0.00 0.00 0.00 82 1053.7
20260903021949 26 89 1.6 1.6 0.00 0.00 0.00 78 1053.5
20260903021445 26 91 0.0 1.6 0.00 0.00 0.00 77 1053.5
20260903020940 26 89 1.6 1.6 0.00 0.00 0.00 79 1053.4
20260903020436 26 89 1.6 1.6 0.00 0.00 0.00 79 1053.2
20260903015930 26 88 1.6 1.6 0.00 0.00 0.00 80 1053.3
20260903015426 27 95 1.6 1.6 0.00 0.00 0.00 77 1053.4
20260903014921 27 96 1.6 1.6 0.00 0.00 0.00 75 1053.3
20260903014420 27 97 1.6 1.6 0.00 0.00 0.00 74 1053.5
20260903013916 27 97 0.0 1.6 0.00 0.00 0.00 73 1053.6
20260903013415 27 97 0.0 1.6 0.00 0.00 0.00 74 1053.3
20260903012915 27 97 1.6 1.6 0.00 0.00 0.00 75 1053.6
20260903012414 27 94 1.6 3.2 0.00 0.00 0.00 77 1053.3
20260903011913 27 80 1.6 3.2 0.00 0.00 0.00 76 1053.3
20260903011408 27 77 1.6 1.6 0.00 0.00 0.00 76 1053.3
20260903010903 27 76 1.6 1.6 0.00 0.00 0.00 75 1053.4
20260903010358 27 76 0.0 1.6 0.00 0.00 0.00 74 1053.1
20260903005856 28 76 0.0 1.6 0.00 0.00 0.00 71 1053.1
20260903005352 28 77 0.0 0.0 0.00 0.00 0.00 70 1053.2
20260903004848 28 77 0.0 0.0 0.00 0.00 0.00 68 1053.0
20260903004343 28 77 0.0 0.0 0.00 0.00 0.00 67 1053.2
20260903003838 28 77 0.0 0.0 0.00 0.00 0.00 67 1053.2
20260903003339 28 77 0.0 0.0 0.00 0.00 0.00 66 1053.0
20260903002838 29 77 0.0 0.0 0.00 0.00 0.00 64 1053.0
20260903002333 29 76 0.0 0.0 0.00 0.00 0.00 65 1052.9
20260903001827 29 211 0.0 0.0 0.00 0.00 0.00 66 1052.8
20260903001323 30 211 0.0 0.0 0.00 0.00 0.00 63 1053.0
20260903000823 30 211 0.0 0.0 0.00 0.00 0.00 61 1053.0
20260903000318 31 211 0.0 0.0 0.00 0.00 0.00 61 1053.0
20260902235816 31 211 0.0 0.0 0.00 0.00 0.00 59 1053.1
20260902235312 32 211 0.0 0.0 0.00 0.00 0.00 55 1053.0
20260902234812 33 211 0.0 0.0 0.00 0.00 0.00 53 1052.9
20260902234311 33 211 0.0 0.0 0.00 0.00 0.00 57 1053.0
20260902233810 35 211 0.0 0.0 0.00 0.00 0.00 57 1053.0
20260902233310 35 211 0.0 0.0 0.00 0.00 0.00 52 1053.0
20260902232809 35 211 0.0 0.0 0.00 0.00 0.00 50 1052.9
20260902232309 36 211 0.0 0.0 0.00 0.00 0.00 46 1053.3
20260902231808 36 208 0.0 0.0 0.00 0.00 0.00 45 1053.0
20260902231303 36 207 0.0 0.0 0.00 0.00 0.00 47 1053.0
20260902230759 36 207 0.0 0.0 0.00 0.00 0.00 45 1052.9
20260902230258 35 208 0.0 0.0 0.00 0.00 0.00 46 1053.1
20260902225752 35 208 0.0 0.0 0.00 0.00 0.00 47 1053.1
20260902225248 35 213 0.0 1.6 0.00 0.00 0.00 48 1053.0
20260902224746 35 228 1.6 1.6 0.00 0.00 0.00 47 1053.1
20260902224242 35 215 1.6 3.2 0.00 0.00 0.00 48 1053.0
20260902223738 36 210 1.6 3.2 0.00 0.00 0.00 44 1053.1
20260902223237 35 279 0.0 1.6 0.00 0.00 0.00 47 1053.1
20260902222736 35 250 1.6 3.2 0.00 0.00 0.00 44 1053.1
20260902222231 35 194 1.6 1.6 0.00 0.00 0.00 46 1053.4
20260902221731 35 187 3.2 4.8 0.00 0.00 0.00 45 1053.1
20260902221230 35 263 3.2 4.8 0.00 0.00 0.00 46 1053.4
20260902220726 35 231 3.2 4.8 0.00 0.00 0.00 45 1053.3
20260902220225 36 255 1.6 6.4 0.00 0.00 0.00 43 1053.4
20260902215721 35 231 1.6 3.2 0.00 0.00 0.00 45 1053.4
20260902215216 35 211 3.2 3.2 0.00 0.00 0.00 43 1053.4
20260902214712 35 206 3.2 6.4 0.00 0.00 0.00 43 1053.4
20260902214210 35 209 1.6 4.8 0.00 0.00 0.00 46 1053.5
20260902213706 35 236 3.2 9.7 0.00 0.00 0.00 44 1053.3
20260902213201 35 209 4.8 6.4 0.00 0.00 0.00 43 1053.6
20260902212655 36 194 3.2 6.4 0.00 0.00 0.00 42 1053.8
20260902212152 36 203 3.2 4.8 0.00 0.00 0.00 42 1053.6
20260902211648 36 212 3.2 3.2 0.00 0.00 0.00 44 1053.8
20260902211148 35 174 3.2 3.2 0.00 0.00 0.00 43 1053.7
20260902210647 36 215 8.0 11.3 0.00 0.00 0.00 41 1053.6
20260902210143 36 217 3.2 6.4 0.00 0.00 0.00 43 1053.6
20260902205642 35 116 0.0 1.6 0.00 0.00 0.00 46 1053.7
20260902205137 35 269 4.8 9.7 0.00 0.00 0.00 44 1053.7
20260902204632 35 226 6.4 6.4 0.00 0.00 0.00 41 1053.6
20260902204126 35 261 9.7 12.9 0.00 0.00 0.00 41 1053.8
20260902203622 35 206 3.2 11.3 0.00 0.00 0.00 43 1053.8
20260902203122 36 184 4.8 6.4 0.00 0.00 0.00 42 1053.8
20260902202618 36 236 3.2 6.4 0.00 0.00 0.00 43 1053.8
20260902202114 35 207 3.2 9.7 0.00 0.00 0.00 44 1053.7
20260902201610 36 235 4.8 6.4 0.00 0.00 0.00 44 1053.8
20260902201108 35 192 1.6 3.2 0.00 0.00 0.00 42 1053.8
20260902200604 35 202 3.2 12.9 0.00 0.00 0.00 44 1053.9
20260902200100 35 219 4.8 6.4 0.00 0.00 0.00 47 1053.9
20260902195555 35 266 6.4 11.3 0.00 0.00 0.00 46 1053.9
20260902195054 35 257 1.6 4.8 0.00 0.00 0.00 46 1054.1
20260902194554 34 203 3.2 6.4 0.00 0.00 0.00 48 1054.0
20260902194049 34 224 4.8 9.7 0.00 0.00 0.00 51 1054.3
20260902193546 35 214 3.2 4.8 0.00 0.00 0.00 48 1054.3
20260902193044 35 235 3.2 4.8 0.00 0.00 0.00 46 1054.2
20260902192543 35 261 3.2 9.7 0.00 0.00 0.00 47 1054.5
20260902192042 35 234 4.8 11.3 0.00 0.00 0.00 45 1054.3
20260902191538 35 268 4.8 9.7 0.00 0.00 0.00 46 1054.7
20260902191032 35 251 6.4 9.7 0.00 0.00 0.00 44 1054.7
20260902190528 36 192 4.8 6.4 0.00 0.00 0.00 47 1054.5
20260902190024 36 191 3.2 3.2 0.00 0.00 0.00 44 1054.7
20260902185519 35 221 3.2 6.4 0.00 0.00 0.00 47 1054.6
20260902185015 35 221 4.8 4.8 0.00 0.00 0.00 49 1054.9
20260902184509 35 299 4.8 6.4 0.00 0.00 0.00 49 1054.8
20260902184005 35 85 0.0 1.6 0.00 0.00 0.00 49 1054.7
20260902183501 35 249 1.6 4.8 0.00 0.00 0.00 48 1054.9
20260902182957 35 173 3.2 6.4 0.00 0.00 0.00 49 1054.7
20260902182453 35 188 6.4 6.4 0.00 0.00 0.00 49 1055.0
20260902181949 34 249 1.6 6.4 0.00 0.00 0.00 53 1054.8
20260902181444 34 280 3.2 4.8 0.00 0.00 0.00 50 1055.0
20260902180938 34 175 3.2 9.7 0.00 0.00 0.00 51 1055.0
20260902180434 33 231 1.6 6.4 0.00 0.00 0.00 52 1055.0
20260902175930 34 267 3.2 9.7 0.00 0.00 0.00 52 1054.9
20260902175425 34 192 9.7 11.3 0.00 0.00 0.00 49 1055.0
20260902174920 34 195 4.8 9.7 0.00 0.00 0.00 52 1055.1
20260902174417 34 250 4.8 6.4 0.00 0.00 0.00 52 1055.0
20260902173913 33 185 3.2 4.8 0.00 0.00 0.00 52 1055.4
20260902173411 33 321 1.6 3.2 0.00 0.00 0.00 53 1055.4
20260902172906 33 264 11.3 14.5 0.00 0.00 0.00 51 1055.6
20260902172406 33 211 4.8 9.7 0.00 0.00 0.00 53 1055.4
20260902171901 33 199 3.2 4.8 0.00 0.00 0.00 51 1055.5
20260902171356 33 309 3.2 9.7 0.00 0.00 0.00 54 1055.6
20260902170853 33 231 6.4 9.7 0.00 0.00 0.00 55 1055.8
20260902170353 33 277 3.2 6.4 0.00 0.00 0.00 52 1055.8
20260902165848 33 302 8.0 11.3 0.00 0.00 0.00 54 1055.7
20260902165347 33 259 3.2 9.7 0.00 0.00 0.00 53 1055.8
20260902164842 33 303 3.2 4.8 0.00 0.00 0.00 54 1055.8
20260902164337 33 243 4.8 4.8 0.00 0.00 0.00 55 1055.9
20260902163836 33 265 8.0 11.3 0.00 0.00 0.00 53 1056.1
20260902163331 33 254 6.4 9.7 0.00 0.00 0.00 55 1056.0
20260902162830 33 196 4.8 4.8 0.00 0.00 0.00 57 1056.2
20260902162325 33 180 4.8 11.3 0.00 0.00 0.00 55 1055.9
20260902161825 33 208 6.4 11.3 0.00 0.00 0.00 56 1056.2
20260902161320 33 239 3.2 6.4 0.00 0.00 0.00 59 1056.2
20260902160816 32 290 1.6 3.2 0.00 0.00 0.00 59 1056.2
20260902160311 33 204 4.8 6.4 0.00 0.00 0.00 57 1056.3
20260902155809 32 249 4.8 4.8 0.00 0.00 0.00 58 1056.2
20260902155308 32 284 4.8 4.8 0.00 0.00 0.00 61 1056.4
20260902154803 32 264 3.2 6.4 0.00 0.00 0.00 58 1056.3
20260902154259 32 253 3.2 6.4 0.00 0.00 0.00 61 1056.2
20260902153758 32 236 4.8 6.4 0.00 0.00 0.00 62 1056.4
20260902153252 32 290 4.8 4.8 0.00 0.00 0.00 63 1056.4
20260902152748 32 272 3.2 4.8 0.00 0.00 0.00 63 1056.0
20260902152244 31 253 3.2 6.4 0.00 0.00 0.00 64 1056.3
20260902151744 31 210 3.2 4.8 0.00 0.00 0.00 63 1056.2
20260902151240 31 207 6.4 9.7 0.00 0.00 0.00 63 1056.1
20260902150734 31 267 3.2 6.4 0.00 0.00 0.00 66 1056.3
20260902150231 31 218 4.8 6.4 0.00 0.00 0.00 65 1056.2
20260902145724 31 255 1.6 3.2 0.00 0.00 0.00 66 1056.2
20260902145219 31 280 1.6 4.8 0.00 0.00 0.00 67 1056.2
20260902144715 30 279 3.2 4.8 0.00 0.00 0.00 65 1056.1
20260902144210 30 264 3.2 4.8 0.00 0.00 0.00 66 1056.2
20260902143705 30 201 1.6 4.8 0.00 0.00 0.00 68 1056.0
20260902143201 30 208 1.6 3.2 0.00 0.00 0.00 69 1056.0
20260902142656 30 287 1.6 4.8 0.00 0.00 0.00 67 1055.9
20260902142152 29 211 4.8 6.4 0.00 0.00 0.00 70 1056.1
20260902141651 29 271 1.6 4.8 0.00 0.00 0.00 71 1056.3
20260902141147 28 271 0.0 4.8 0.00 0.00 0.00 70 1056.1
20260902140643 28 261 4.8 4.8 0.00 0.00 0.00 71 1056.1
20260902140142 28 250 4.8 4.8 0.00 0.00 0.00 72 1056.0
20260902135642 28 189 1.6 3.2 0.00 0.00 0.00 73 1056.1
20260902135137 28 213 3.2 3.2 0.00 0.00 0.00 74 1055.9
20260902134633 27 194 1.6 4.8 0.00 0.00 0.00 75 1056.1
20260902134132 27 212 3.2 4.8 0.00 0.00 0.00 76 1056.0
20260902133627 27 204 3.2 6.4 0.00 0.00 0.00 76 1056.1
20260902133122 27 198 3.2 4.8 0.00 0.00 0.00 76 1056.1
20260902132617 27 212 3.2 3.2 0.00 0.00 0.00 76 1056.1
20260902132112 27 217 1.6 3.2 0.00 0.00 0.00 78 1055.9
20260902131608 26 219 1.6 1.6 0.00 0.00 0.00 79 1056.0
20260902131104 26 214 0.0 1.6 0.00 0.00 0.00 78 1056.1
20260902130600 26 200 0.0 3.2 0.00 0.00 0.00 78 1056.1
20260902130100 26 208 3.2 4.8 0.00 0.00 0.00 78 1056.0
20260902125556 26 204 1.6 1.6 0.00 0.00 0.00 78 1056.0
20260902125051 26 210 0.0 1.6 0.00 0.00 0.00 78 1056.0
20260902124548 26 204 0.0 1.6 0.00 0.00 0.00 78 1055.9
20260902124047 26 139 0.0 0.0 0.00 0.00 0.00 78 1055.9
20260902123543 26 136 1.6 1.6 0.00 0.00 0.00 77 1056.0
20260902123038 26 131 0.0 0.0 0.00 0.00 0.00 79 1055.9
20260902122537 25 93 0.0 0.0 0.00 0.00 0.00 82 1055.8
20260902122033 25 90 0.0 0.0 0.00 0.00 0.00 84 1055.8
20260902121533 24 83 1.6 1.6 0.00 0.00 0.00 87 1055.7
20260902121028 23 84 1.6 1.6 0.00 0.00 0.00 88 1055.6
20260902120525 23 77 1.6 1.6 0.00 0.00 0.00 89 1055.4
20260902120021 23 77 1.6 1.6 0.00 0.00 0.00 90 1055.6
20260902115515 23 81 1.6 3.2 0.00 0.00 0.00 90 1055.6
20260902115012 22 84 1.6 1.6 0.00 0.00 0.00 90 1055.6
20260902114508 22 92 1.6 1.6 0.00 0.00 0.00 91 1055.5
20260902114007 22 91 1.6 3.2 0.00 0.00 0.00 91 1055.4
20260902113503 22 85 1.6 1.6 0.00 0.00 0.00 91 1055.4
20260902113003 22 85 0.0 1.6 0.00 0.00 0.00 92 1055.3
20260902112459 22 86 1.6 1.6 0.00 0.00 0.00 92 1055.3
20260902111955 22 88 1.6 1.6 0.00 0.00 0.00 92 1055.2
20260902111451 22 92 1.6 1.6 0.00 0.00 0.00 92 1055.1
20260902110947 22 93 1.6 3.2 0.00 0.00 0.00 92 1055.1
20260902110442 22 97 1.6 1.6 0.00 0.00 0.00 92 1055.0
20260902105937 22 102 1.6 1.6 0.00 0.00 0.00 92 1055.0
20260902105433 22 95 1.6 1.6 0.00 0.00 0.00 93 1055.1
20260902104927 22 92 1.6 3.2 0.00 0.00 0.00 92 1055.1
20260902104423 22 91 3.2 3.2 0.00 0.00 0.00 91 1055.1
20260902103922 22 105 1.6 1.6 0.00 0.00 0.00 92 1055.1
20260902103418 22 105 1.6 1.6 0.00 0.00 0.00 93 1054.7
20260902102913 22 99 1.6 3.2 0.00 0.00 0.00 94 1054.8
20260902102410 22 95 3.2 3.2 0.00 0.00 0.00 94 1055.0
20260902101906 21 82 3.2 3.2 0.00 0.00 0.00 94 1055.2
20260902101401 22 80 1.6 3.2 0.00 0.00 0.00 93 1054.8
20260902100900 22 86 3.2 3.2 0.00 0.00 0.00 92 1054.8
20260902100354 22 97 3.2 3.2 0.00 0.00 0.00 91 1055.0
20260902095849 22 107 1.6 1.6 0.00 0.00 0.00 92 1054.7
20260902095349 22 106 1.6 1.6 0.00 0.00 0.00 92 1054.7
20260902094849 22 106 1.6 1.6 0.00 0.00 0.00 93 1054.6
20260902094345 22 103 1.6 1.6 0.00 0.00 0.00 93 1054.7
20260902093844 22 97 1.6 3.2 0.00 0.00 0.00 94 1054.7
20260902093340 22 96 3.2 3.2 0.00 0.00 0.00 94 1054.5
20260902092838 22 80 3.2 3.2 0.00 0.00 0.00 94 1054.5
20260902092335 22 81 1.6 3.2 0.00 0.00 0.00 93 1054.5
20260902091835 22 95 1.6 3.2 0.00 0.00 0.00 94 1054.2
20260902091330 22 104 1.6 1.6 0.00 0.00 0.00 94 1054.5
20260902090827 22 100 1.6 3.2 0.00 0.00 0.00 95 1054.3
20260902090326 22 95 3.2 3.2 0.00 0.00 0.00 95 1054.5
20260902085825 22 87 4.8 4.8 0.00 0.00 0.00 95 1054.6
20260902085320 22 82 3.2 3.2 0.00 0.00 0.00 95 1054.1
20260902084816 22 91 3.2 3.2 0.00 0.00 0.00 95 1054.7
20260902084313 22 80 1.6 3.2 0.00 0.00 0.00 95 1054.5
20260902083808 22 87 3.2 3.2 0.00 0.00 0.00 95 1054.3
20260902083308 22 87 3.2 3.2 0.00 0.00 0.00 95 1054.5
20260902082802 22 86 3.2 3.2 0.00 0.00 0.00 95 1054.5
20260902082259 22 93 1.6 3.2 0.00 0.00 0.00 95 1054.3
20260902081755 22 89 3.2 3.2 0.00 0.00 0.00 95 1054.6
20260902081250 22 83 1.6 3.2 0.00 0.00 0.00 95 1054.6
20260902080745 21 84 1.6 1.6 0.00 0.00 0.00 95 1054.5
20260902080242 21 84 1.6 1.6 0.00 0.00 0.00 95 1054.5
20260902075741 22 84 0.0 0.0 0.00 0.00 0.00 95 1054.1
20260902075238 22 85 0.0 1.6 0.00 0.00 0.00 95 1054.1
20260902074737 21 86 1.6 3.2 0.00 0.00 0.00 95 1054.1
20260902074233 21 74 1.6 1.6 0.00 0.00 0.00 95 1054.2
20260902073728 21 74 1.6 1.6 0.00 0.00 0.00 94 1054.6
20260902073224 21 74 1.6 1.6 0.00 0.00 0.00 94 1054.1
20260902072720 22 77 1.6 1.6 0.00 0.00 0.00 94 1054.1
20260902072216 22 78 1.6 1.6 0.00 0.00 0.00 93 1054.1
20260902071712 22 80 1.6 3.2 0.00 0.00 0.00 93 1054.0
20260902071207 22 89 3.2 3.2 0.00 0.00 0.00 92 1054.3
20260902070704 22 85 1.6 3.2 0.00 0.00 0.00 92 1054.1
20260902070203 22 82 1.6 3.2 0.00 0.00 0.00 92 1054.1
20260902065701 22 77 1.6 3.2 0.00 0.00 0.00 92 1054.5
20260902065158 22 77 1.6 1.6 0.00 0.00 0.00 92 1054.3
20260902064652 22 81 1.6 1.6 0.00 0.00 0.00 91 1054.2
20260902064148 22 90 1.6 1.6 0.00 0.00 0.00 92 1054.1
20260902063643 22 89 1.6 3.2 0.00 0.00 0.00 92 1054.1
20260902063138 22 81 3.2 3.2 0.00 0.00 0.00 91 1054.3
20260902062637 22 88 3.2 3.2 0.00 0.00 0.00 90 1054.3
20260902062132 23 92 1.6 3.2 0.00 0.00 0.00 90 1054.5
20260902061631 23 84 3.2 3.2 0.00 0.00 0.00 89 1054.5
20260902061128 23 105 1.6 1.6 0.00 0.00 0.00 89 1054.8
20260902060624 23 107 1.6 1.6 0.00 0.00 0.00 88 1054.3
20260902060120 23 104 1.6 1.6 0.00 0.00 0.00 88 1054.7
20260902055615 23 103 0.0 0.0 0.00 0.00 0.00 88 1054.6
20260902055111 23 100 0.0 1.6 0.00 0.00 0.00 89 1054.3
20260902054606 23 96 0.0 1.6 0.00 0.00 0.00 90 1054.3
20260902054101 23 93 1.6 3.2 0.00 0.00 0.00 91 1054.2
20260902053556 22 88 3.2 3.2 0.00 0.00 0.00 92 1054.2
20260902053051 22 83 3.2 3.2 0.00 0.00 0.00 92 1054.2
20260902052551 22 80 3.2 3.2 0.00 0.00 0.00 92 1054.2
20260902052047 22 77 1.6 3.2 0.00 0.00 0.00 91 1054.2
20260902051546 23 78 1.6 1.6 0.00 0.00 0.00 91 1054.2
20260902051045 23 78 1.6 1.6 0.00 0.00 0.00 91 1054.2
20260902050540 23 76 1.6 3.2 0.00 0.00 0.00 90 1054.2
20260902050035 23 95 1.6 1.6 0.00 0.00 0.00 91 1054.1
20260902045531 23 90 3.2 3.2 0.00 0.00 0.00 90 1054.2
20260902045027 23 84 3.2 3.2 0.00 0.00 0.00 90 1054.2
20260902044527 23 70 1.6 3.2 0.00 0.00 0.00 90 1054.3
20260902044023 23 79 0.0 1.6 0.00 0.00 0.00 92 1054.3